FW2402 Weather Reports


Display with metric or nautical units.
time (UTC)temp
F
wind
direction
speed
MPH
gust
MPH
rain 1hr
in
rain 24hr
in
rain mn
in
humidity
%
barometer
mb
20210301123031 71 175 1.0 6.0 0.00 0.00 0.00 92 1019.1
20210301122708 71 205 1.0 4.0 0.00 0.00 0.00 92 1019.1
20210301122039 71 209 1.0 5.0 0.00 0.00 0.00 92 1019.0
20210301121557 71 167 1.0 5.0 0.00 0.00 0.00 92 1019.1
20210301121041 71 232 1.0 4.0 0.00 0.00 0.00 92 1019.1
20210301120542 71 0 0.0 5.0 0.00 0.00 0.00 92 1019.0
20210301120112 71 196 0.0 5.0 0.00 0.00 0.00 92 1018.9
20210301115539 71 191 1.0 5.0 0.00 0.00 0.00 92 1018.9
20210301115028 71 248 2.0 4.0 0.00 0.00 0.00 92 1018.9
20210301114639 71 221 1.0 9.0 0.00 0.00 0.00 92 1018.9
20210301114037 71 254 2.0 9.0 0.00 0.00 0.00 92 1018.8
20210301113546 71 203 1.0 5.0 0.00 0.00 0.00 92 1018.9
20210301113125 71 210 2.0 5.0 0.00 0.00 0.00 92 1018.8
20210301112807 71 259 2.0 8.0 0.00 0.00 0.00 92 1018.8
20210301112105 71 263 2.0 8.0 0.00 0.00 0.00 92 1018.7
20210301111544 72 255 1.0 7.0 0.00 0.00 0.00 93 1018.7
20210301111042 72 180 1.0 5.0 0.00 0.00 0.00 93 1018.7
20210301110537 72 211 1.0 7.0 0.00 0.00 0.00 93 1018.6
20210301110048 72 0 2.0 7.0 0.00 0.00 0.00 93 1018.5
20210301105524 72 167 2.0 7.0 0.00 0.00 0.00 93 1018.5
20210301105114 71 229 2.0 8.0 0.00 0.00 0.00 93 1018.4
20210301104540 72 173 2.0 8.0 0.00 0.00 0.00 93 1018.4
20210301104028 71 211 1.0 6.0 0.00 0.00 0.00 93 1018.4
20210301103523 71 188 2.0 6.0 0.00 0.00 0.00 93 1018.3
20210301103047 71 0 1.0 6.0 0.00 0.00 0.00 93 1018.2
20210301102650 71 190 1.0 6.0 0.00 0.00 0.00 93 1018.2
20210301102027 71 157 1.0 4.0 0.00 0.00 0.00 93 1018.3
20210301101549 71 189 0.0 3.0 0.00 0.00 0.00 93 1018.3
20210301101037 71 0 0.0 4.0 0.00 0.00 0.00 93 1018.1
20210301100536 71 196 1.0 4.0 0.00 0.00 0.00 93 1018.2
20210301100035 71 205 0.0 4.0 0.00 0.00 0.00 93 1018.1
20210301095530 71 205 0.0 4.0 0.00 0.00 0.00 93 1018.0
20210301095049 71 0 0.0 3.0 0.00 0.00 0.00 93 1018.1
20210301094549 71 0 0.0 3.0 0.00 0.00 0.00 93 1018.1
20210301094023 71 0 0.0 3.0 0.00 0.00 0.00 93 1018.0
20210301093529 71 0 0.0 2.0 0.00 0.00 0.00 92 1018.0
20210301093044 71 0 0.0 0.0 0.00 0.00 0.00 92 1017.9
20210301092715 71 0 0.0 0.0 0.00 0.00 0.00 92 1017.9
20210301092024 71 0 0.0 1.0 0.00 0.00 0.00 92 1017.9
20210301091544 71 0 0.0 1.0 0.00 0.00 0.00 91 1017.8
20210301091026 71 0 0.0 3.0 0.00 0.00 0.00 91 1017.7
20210301090541 71 0 1.0 3.0 0.00 0.00 0.00 91 1017.6
20210301090105 71 0 0.0 2.0 0.00 0.00 0.00 91 1017.6
20210301085529 71 0 0.0 3.0 0.00 0.00 0.00 91 1017.5
20210301085032 71 178 0.0 3.0 0.00 0.00 0.00 91 1017.6
20210301084557 71 179 0.0 3.0 0.00 0.00 0.00 91 1017.6
20210301084035 71 179 0.0 3.0 0.00 0.00 0.00 90 1017.7
20210301083526 71 178 0.0 4.0 0.00 0.00 0.00 91 1017.7
20210301083051 71 178 1.0 4.0 0.00 0.00 0.00 91 1017.7
20210301082706 71 0 0.0 3.0 0.00 0.00 0.00 90 1017.8
20210301082057 71 179 0.0 3.0 0.00 0.00 0.00 90 1017.7
20210301081535 71 179 0.0 3.0 0.00 0.00 0.00 90 1017.8
20210301081021 71 0 1.0 3.0 0.00 0.00 0.00 90 1017.8
20210301080522 71 182 1.0 3.0 0.00 0.00 0.00 90 1017.8
20210301080038 71 182 0.0 3.0 0.00 0.00 0.00 90 1017.8
20210301075521 71 0 0.0 3.0 0.00 0.00 0.00 90 1017.8
20210301075025 71 182 1.0 3.0 0.00 0.00 0.00 90 1017.9
20210301074525 70 0 0.0 4.0 0.00 0.00 0.00 90 1017.9
20210301074035 70 182 1.0 4.0 0.00 0.00 0.00 90 1017.9
20210301073529 70 185 2.0 4.0 0.00 0.00 0.00 90 1018.0
20210301073051 70 184 1.0 3.0 0.00 0.00 0.00 90 1018.0
20210301072608 70 211 1.0 3.0 0.00 0.00 0.00 89 1017.9
20210301072027 69 304 1.0 3.0 0.00 0.00 0.00 90 1018.0
20210301071535 69 0 0.0 0.0 0.00 0.00 0.00 90 1018.0
20210301071031 69 0 0.0 0.0 0.00 0.00 0.00 90 1018.0
20210301070524 69 0 0.0 0.0 0.00 0.00 0.00 90 1018.2
20210301070106 69 0 0.0 0.0 0.00 0.00 0.00 90 1018.2
20210301065534 69 0 0.0 0.0 0.00 0.00 0.00 90 1018.2
20210301065032 69 0 0.0 0.0 0.00 0.00 0.00 91 1018.3
20210301064544 69 0 0.0 0.0 0.00 0.00 0.00 91 1018.3
20210301064024 68 0 0.0 0.0 0.00 0.00 0.00 91 1018.4
20210301063523 68 0 0.0 0.0 0.00 0.00 0.00 91 1018.3
20210301063024 68 0 0.0 0.0 0.00 0.00 0.00 91 1018.4
20210301062605 68 0 0.0 0.0 0.00 0.00 0.00 91 1018.4
20210301062031 68 0 0.0 0.0 0.00 0.00 0.00 91 1018.4
20210301061529 68 0 0.0 0.0 0.00 0.00 0.00 90 1018.5
20210301061027 68 0 0.0 0.0 0.00 0.00 0.00 90 1018.5
20210301060523 68 0 0.0 0.0 0.00 0.00 0.00 90 1018.6
20210301060116 68 0 0.0 0.0 0.00 0.00 0.00 90 1018.6
20210301055532 68 0 0.0 0.0 0.00 0.00 0.00 89 1018.7
20210301055025 68 0 0.0 0.0 0.00 0.00 0.00 89 1018.7
20210301054547 68 0 0.0 0.0 0.00 0.00 0.00 89 1018.7
20210301054025 68 0 0.0 0.0 0.00 0.00 0.00 89 1018.6
20210301053525 68 0 0.0 0.0 0.00 0.00 0.00 89 1018.7
20210301053034 68 0 0.0 0.0 0.00 0.00 0.00 89 1018.7
20210301052636 68 0 0.0 0.0 0.00 0.00 0.00 89 1018.7
20210301052026 68 0 0.0 0.0 0.00 0.00 0.00 88 1018.8
20210301051533 68 0 0.0 0.0 0.00 0.00 0.00 89 1018.8
20210301051029 68 0 0.0 0.0 0.00 0.00 0.00 89 1018.8
20210301050541 68 0 0.0 0.0 0.00 0.00 0.00 88 1018.9
20210301050032 68 0 0.0 0.0 0.00 0.00 0.00 89 1018.9
20210301045522 68 0 0.0 0.0 0.00 0.00 0.00 89 1019.0
20210301045336 68 0 0.0 0.0 0.00 0.00 0.00 89 1018.9
20210301044600 68 0 0.0 0.0 0.00 0.00 0.00 89 1019.0
20210301044034 68 0 0.0 0.0 0.00 0.00 0.00 88 1019.0
20210301043526 69 0 0.0 0.0 0.00 0.00 0.00 88 1019.0
20210301043046 68 0 0.0 0.0 0.00 0.00 0.00 89 1019.1
20210301042605 68 0 0.0 0.0 0.00 0.00 0.00 88 1019.0
20210301042029 68 0 0.0 0.0 0.00 0.00 0.00 88 1019.0
20210301041554 69 0 0.0 0.0 0.00 0.00 0.00 87 1019.1
20210301041023 69 0 0.0 0.0 0.00 0.00 0.00 87 1019.2
20210301040545 69 0 0.0 0.0 0.00 0.00 0.00 88 1019.2
20210301040117 69 0 0.0 0.0 0.00 0.00 0.00 88 1019.3
20210301035521 69 0 0.0 0.0 0.00 0.00 0.00 88 1019.3
20210301035344 69 0 0.0 2.0 0.00 0.00 0.00 88 1019.3
20210301034548 69 0 0.0 2.0 0.00 0.00 0.00 88 1019.4
20210301034033 69 304 1.0 2.0 0.00 0.00 0.00 88 1019.5
20210301033533 68 304 0.0 2.0 0.00 0.00 0.00 89 1019.3
20210301033026 68 0 0.0 1.0 0.00 0.00 0.00 89 1019.4
20210301032623 68 0 0.0 1.0 0.00 0.00 0.00 88 1019.5
20210301032024 68 0 0.0 0.0 0.00 0.00 0.00 88 1019.5
20210301031527 68 0 0.0 0.0 0.00 0.00 0.00 87 1019.4
20210301031026 68 0 0.0 0.0 0.00 0.00 0.00 86 1019.4
20210301030529 68 0 0.0 0.0 0.00 0.00 0.00 85 1019.4
20210301030043 69 0 0.0 0.0 0.00 0.00 0.00 86 1019.4
20210301025525 69 0 0.0 1.0 0.00 0.00 0.00 86 1019.4
20210301025040 69 0 0.0 2.0 0.00 0.00 0.00 86 1019.4
20210301024528 69 0 0.0 2.0 0.00 0.00 0.00 86 1019.4
20210301024025 69 304 0.0 1.0 0.00 0.00 0.00 86 1019.3
20210301023521 69 0 0.0 1.0 0.00 0.00 0.00 85 1019.3
20210301023110 69 0 0.0 1.0 0.00 0.00 0.00 85 1019.3
20210301022715 69 0 0.0 1.0 0.00 0.00 0.00 84 1019.3
20210301022023 70 0 0.0 1.0 0.00 0.00 0.00 84 1019.3
20210301021607 70 0 0.0 0.0 0.00 0.00 0.00 83 1019.2
20210301021029 70 0 0.0 0.0 0.00 0.00 0.00 83 1019.3
20210301020523 70 0 0.0 0.0 0.00 0.00 0.00 83 1019.3
20210301020053 71 0 0.0 0.0 0.00 0.00 0.00 82 1019.3
20210301015523 71 0 0.0 0.0 0.00 0.00 0.00 81 1019.3
20210301015022 71 0 0.0 1.0 0.00 0.00 0.00 80 1019.2
20210301014548 72 0 0.0 1.0 0.00 0.00 0.00 80 1019.1
20210301014040 72 0 0.0 1.0 0.00 0.00 0.00 79 1019.2
20210301013522 72 0 0.0 0.0 0.00 0.00 0.00 79 1019.1
20210301013046 73 0 0.0 1.0 0.00 0.00 0.00 78 1019.1
20210301012543 73 0 0.0 2.0 0.00 0.00 0.00 78 1019.1
20210301012029 73 304 1.0 2.0 0.00 0.00 0.00 77 1019.2
20210301011543 74 0 0.0 0.0 0.00 0.00 0.00 76 1019.2
20210301011026 74 0 0.0 0.0 0.00 0.00 0.00 75 1019.2
20210301010544 75 0 0.0 0.0 0.00 0.00 0.00 75 1019.2
20210301010056 75 0 0.0 0.0 0.00 0.00 0.00 74 1019.2
20210301005530 75 0 0.0 0.0 0.00 0.00 0.00 74 1019.2
20210301005332 76 0 0.0 0.0 0.00 0.00 0.00 73 1019.3
20210301004528 76 0 0.0 0.0 0.00 0.00 0.00 72 1019.2
20210301004032 76 0 0.0 2.0 0.00 0.00 0.00 72 1019.2
20210301003527 77 0 0.0 4.0 0.00 0.00 0.00 71 1019.1
20210301003027 77 0 1.0 4.0 0.00 0.00 0.00 71 1019.1
20210301002652 77 302 2.0 6.0 0.00 0.00 0.00 70 1019.1
20210301002031 78 292 2.0 6.0 0.00 0.00 0.00 70 1019.0
20210301001535 78 293 2.0 8.0 0.00 0.00 0.00 68 1019.1
20210301001027 79 295 3.0 8.0 0.00 0.00 0.00 67 1019.0
20210301000528 79 305 3.0 8.0 0.00 0.00 0.00 66 1018.9
20210301000037 79 311 3.0 9.0 0.00 0.00 0.00 65 1018.9
20210228235531 80 306 4.0 9.0 0.00 0.00 0.00 64 1018.8
20210228235216 79 300 3.0 7.0 0.00 0.00 0.00 63 1018.9
20210228234548 80 163 1.0 2.0 0.00 0.00 0.00 62 1018.7
20210228234034 81 163 0.0 2.0 0.00 0.00 0.00 59 1018.7
20210228233530 82 0 0.0 1.0 0.00 0.00 0.00 58 1018.6
20210228233048 83 0 0.0 1.0 0.00 0.00 0.00 55 1018.6
20210228232656 83 0 0.0 1.0 0.00 0.00 0.00 55 1018.5
20210228232036 84 0 0.0 2.0 0.00 0.00 0.00 54 1018.5
20210228231601 84 0 0.0 2.0 0.00 0.00 0.00 53 1018.5
20210228231027 84 0 0.0 4.0 0.00 0.00 0.00 54 1018.5
20210228230531 84 163 0.0 4.0 0.00 0.00 0.00 52 1018.4
20210228230032 85 0 0.0 3.0 0.00 0.00 0.00 52 1018.4
20210228225521 85 173 1.0 3.0 0.00 0.00 0.00 51 1018.4
20210228225121 85 186 1.0 5.0 0.00 0.00 0.00 51 1018.3
20210228224545 86 0 1.0 7.0 0.00 0.00 0.00 51 1018.4
20210228224024 86 190 2.0 7.0 0.00 0.00 0.00 51 1018.4
20210228223541 86 150 2.0 5.0 0.00 0.00 0.00 52 1018.4
20210228223041 86 167 2.0 5.0 0.00 0.00 0.00 52 1018.4
20210228222553 87 204 2.0 4.0 0.00 0.00 0.00 50 1018.4
20210228222037 86 182 1.0 4.0 0.00 0.00 0.00 54 1018.4
20210228221550 85 174 2.0 4.0 0.00 0.00 0.00 53 1018.5
20210228221035 84 186 0.0 3.0 0.00 0.00 0.00 56 1018.5
20210228220523 84 0 0.0 5.0 0.00 0.00 0.00 55 1018.5
20210228220054 84 163 2.0 5.0 0.00 0.00 0.00 53 1018.5
20210228215520 84 194 1.0 5.0 0.00 0.00 0.00 53 1018.5
20210228215244 85 187 2.0 9.0 0.00 0.00 0.00 52 1018.5
20210228214600 86 185 4.0 9.0 0.00 0.00 0.00 50 1018.5
20210228214029 87 150 2.0 6.0 0.00 0.00 0.00 49 1018.5
20210228213523 87 0 1.0 6.0 0.00 0.00 0.00 52 1018.5
20210228213039 87 193 2.0 7.0 0.00 0.00 0.00 51 1018.6
20210228212604 86 153 2.0 7.0 0.00 0.00 0.00 54 1018.6
20210228212034 85 148 2.0 4.0 0.00 0.00 0.00 53 1018.6
20210228211548 85 198 1.0 6.0 0.00 0.00 0.00 54 1018.7
20210228211038 85 215 3.0 6.0 0.00 0.00 0.00 52 1018.7
20210228210524 84 202 1.0 6.0 0.00 0.00 0.00 52 1018.7
20210228210033 85 247 1.0 6.0 0.00 0.00 0.00 51 1018.8
20210228205522 85 236 1.0 6.0 0.00 0.00 0.00 51 1018.9
20210228205222 86 269 2.0 6.0 0.00 0.00 0.00 50 1018.9
20210228204521 85 197 2.0 9.0 0.00 0.00 0.00 50 1018.9
20210228204021 86 161 2.0 9.0 0.00 0.00 0.00 49 1019.0
20210228203535 86 178 2.0 10.0 0.00 0.00 0.00 51 1019.0
20210228203045 87 204 3.0 10.0 0.00 0.00 0.00 49 1018.9
20210228202546 88 169 4.0 10.0 0.00 0.00 0.00 49 1018.9
20210228202035 87 174 3.0 10.0 0.00 0.00 0.00 48 1019.1
20210228201536 86 177 1.0 8.0 0.00 0.00 0.00 54 1019.2
20210228201024 85 313 3.0 8.0 0.00 0.00 0.00 50 1019.1
20210228200519 86 256 2.0 7.0 0.00 0.00 0.00 49 1019.2
20210228200041 87 250 2.0 11.0 0.00 0.00 0.00 51 1019.3
20210228195530 87 234 5.0 11.0 0.00 0.00 0.00 49 1019.3
20210228195032 88 171 1.0 6.0 0.00 0.00 0.00 50 1019.3
20210228194531 87 101 2.0 10.0 0.00 0.00 0.00 50 1019.3
20210228194033 86 181 6.0 10.0 0.00 0.00 0.00 53 1019.4
20210228193532 85 179 2.0 7.0 0.00 0.00 0.00 50 1019.5
20210228193058 86 105 2.0 8.0 0.00 0.00 0.00 49 1019.5
20210228192651 86 202 4.0 9.0 0.00 0.00 0.00 50 1019.7
20210228192023 87 177 3.0 9.0 0.00 0.00 0.00 49 1019.7
20210228191552 86 319 3.0 9.0 0.00 0.00 0.00 50 1019.7
20210228191023 87 144 3.0 9.0 0.00 0.00 0.00 51 1019.7
20210228190525 87 170 3.0 9.0 0.00 0.00 0.00 50 1019.8
20210228190108 86 156 3.0 9.0 0.00 0.00 0.00 49 1019.9
20210228185525 87 184 5.0 10.0 0.00 0.00 0.00 48 1020.0
20210228185026 86 239 2.0 10.0 0.00 0.00 0.00 49 1020.0
20210228184534 86 172 3.0 10.0 0.00 0.00 0.00 51 1020.1
20210228184022 87 223 2.0 9.0 0.00 0.00 0.00 50 1020.2
20210228183526 86 143 4.0 10.0 0.00 0.00 0.00 51 1020.3
20210228183116 86 190 3.0 10.0 0.00 0.00 0.00 51 1020.4
20210228182622 86 190 3.0 9.0 0.00 0.00 0.00 49 1020.5
20210228182030 86 223 3.0 8.0 0.00 0.00 0.00 50 1020.6
20210228181546 85 107 3.0 9.0 0.00 0.00 0.00 53 1020.8
20210228181040 86 121 4.0 12.0 0.00 0.00 0.00 50 1020.9
20210228180524 86 142 4.0 12.0 0.00 0.00 0.00 51 1020.9
20210228180043 85 150 3.0 12.0 0.00 0.00 0.00 51 1021.0
20210228175534 85 188 2.0 12.0 0.00 0.00 0.00 53 1021.1
20210228175132 85 220 4.0 11.0 0.00 0.00 0.00 49 1021.3
20210228174533 84 147 6.0 11.0 0.00 0.00 0.00 51 1021.3
20210228174023 84 225 4.0 10.0 0.00 0.00 0.00 49 1021.4
20210228173525 85 180 3.0 11.0 0.00 0.00 0.00 53 1021.6
20210228173042 84 111 6.0 11.0 0.00 0.00 0.00 52 1021.7
20210228172632 84 116 5.0 10.0 0.00 0.00 0.00 52 1021.8
20210228172034 85 132 4.0 14.0 0.00 0.00 0.00 55 1022.0
20210228171526 84 155 5.0 14.0 0.00 0.00 0.00 54 1022.1
20210228171054 84 118 5.0 11.0 0.00 0.00 0.00 54 1022.1
20210228170535 84 129 5.0 9.0 0.00 0.00 0.00 55 1022.2
20210228170027 83 154 4.0 14.0 0.00 0.00 0.00 57 1022.2
20210228165519 83 153 7.0 14.0 0.00 0.00 0.00 55 1022.2
20210228165040 83 157 6.0 12.0 0.00 0.00 0.00 55 1022.4
20210228164525 83 196 5.0 11.0 0.00 0.00 0.00 52 1022.5
20210228164031 83 185 3.0 11.0 0.00 0.00 0.00 56 1022.5
20210228163523 83 147 4.0 14.0 0.00 0.00 0.00 54 1022.5
20210228163101 82 247 4.0 14.0 0.00 0.00 0.00 57 1022.7
20210228162725 82 190 2.0 15.0 0.00 0.00 0.00 59 1022.7
20210228162024 82 182 8.0 15.0 0.00 0.00 0.00 57 1022.7
20210228161529 82 210 5.0 13.0 0.00 0.00 0.00 57 1022.8
20210228161040 81 131 7.0 13.0 0.00 0.00 0.00 59 1022.8
20210228160534 82 155 8.0 13.0 0.00 0.00 0.00 58 1022.7
20210228160030 82 218 5.0 11.0 0.00 0.00 0.00 61 1022.8
20210228155519 82 196 5.0 11.0 0.00 0.00 0.00 62 1022.8
20210228155040 81 184 5.0 14.0 0.00 0.00 0.00 67 1022.8
20210228154550 80 116 7.0 14.0 0.00 0.00 0.00 66 1022.8
20210228154025 80 156 3.0 11.0 0.00 0.00 0.00 66 1023.0
20210228153526 81 142 4.0 13.0 0.00 0.00 0.00 66 1023.0
20210228153039 80 179 6.0 14.0 0.00 0.00 0.00 67 1022.9
20210228152754 79 171 8.0 14.0 0.00 0.00 0.00 69 1023.0
20210228152024 79 121 7.0 13.0 0.00 0.00 0.00 69 1022.9
20210228151554 79 165 6.0 13.0 0.00 0.00 0.00 70 1022.9
20210228151023 78 132 7.0 14.0 0.00 0.00 0.00 71 1022.9
20210228150527 78 153 7.0 15.0 0.00 0.00 0.00 71 1023.0
20210228150037 78 142 6.0 15.0 0.00 0.00 0.00 73 1022.9
20210228145534 78 144 5.0 11.0 0.00 0.00 0.00 75 1022.9
20210228145028 77 153 5.0 14.0 0.00 0.00 0.00 75 1022.8
20210228144603 76 198 7.0 14.0 0.00 0.00 0.00 76 1022.9
20210228144030 76 155 7.0 14.0 0.00 0.00 0.00 78 1023.1
20210228143516 76 119 6.0 14.0 0.00 0.00 0.00 81 1023.1
20210228143132 76 138 6.0 12.0 0.00 0.00 0.00 82 1023.2
20210228142723 75 134 6.0 12.0 0.00 0.00 0.00 84 1023.2
20210228142035 74 147 4.0 12.0 0.00 0.00 0.00 86 1023.3
20210228141632 74 129 5.0 12.0 0.00 0.00 0.00 88 1023.2
20210228141020 73 155 4.0 10.0 0.00 0.00 0.00 89 1023.3
20210228140524 73 158 4.0 12.0 0.00 0.00 0.00 91 1023.4
20210228140031 72 219 4.0 12.0 0.00 0.00 0.00 93 1023.4
20210228135522 72 123 3.0 9.0 0.00 0.00 0.00 94 1023.5
20210228135036 71 130 5.0 10.0 0.00 0.00 0.00 96 1023.3
20210228134524 71 138 4.0 10.0 0.00 0.00 0.00 96 1023.3
20210228134023 70 150 3.0 7.0 0.00 0.00 0.00 97 1023.3
20210228133521 70 156 3.0 7.0 0.00 0.00 0.00 97 1023.2
20210228133110 70 138 3.0 7.0 0.00 0.00 0.00 97 1023.1
20210228132619 70 152 3.0 7.0 0.00 0.00 0.00 97 1023.2
20210228132030 70 157 2.0 5.0 0.00 0.00 0.00 97 1023.1
20210228131527 69 158 2.0 6.0 0.00 0.00 0.00 97 1023.1
20210228131028 69 134 1.0 6.0 0.00 0.00 0.00 97 1023.0
20210228130521 69 145 2.0 5.0 0.00 0.00 0.00 97 1022.9
20210228130031 69 133 2.0 5.0 0.00 0.00 0.00 97 1023.0
20210228125522 68 133 2.0 8.0 0.00 0.00 0.00 97 1022.9
20210228125025 68 128 3.0 8.0 0.00 0.00 0.00 97 1022.9
20210228124551 68 134 2.0 6.0 0.00 0.00 0.00 97 1022.7
20210228124023 68 123 2.0 6.0 0.00 0.00 0.00 97 1022.8
20210228123538 68 127 2.0 6.0 0.00 0.00 0.00 97 1022.7